Weather reports worldwide

Advertisment
Edinburgh/Royal Botanic Garden , United Kingdom (99180): temperature & dewpoint: 16.01.2020 00:00:00 - 22.01.2020 00:00:00 (GMT)Edinburgh/Royal Botanic Garden , United Kingdom (99180): temperature -20cm & temperature -100cm: 16.01.2020 00:00:00 - 22.01.2020 00:00:00 (GMT)Edinburgh/Royal Botanic Garden , United Kingdom (99180): precipitation: 16.01.2020 00:00:00 - 22.01.2020 00:00:00 (GMT)
Date & Time tt [°C] td [°C] tt -20cm [°C] tt -100cm [°C] rr [mm]
22.01.2020 00:00:00 - - - - -
21.01.2020 23:00:00 9,6 8,1 - - 0,0
21.01.2020 22:00:00 9,8 8,2 - - 0,0
21.01.2020 21:00:00 9,6 8,2 - - 0,0
21.01.2020 20:00:00 9,6 8,3 - - 0,0
21.01.2020 19:00:00 9,8 8,2 - - 0,0
21.01.2020 18:00:00 9,8 8,2 - - 0,0
21.01.2020 17:00:00 9,6 8,0 - - 0,0
21.01.2020 16:00:00 9,9 8,0 - - 0,0
21.01.2020 15:00:00 10,1 8,0 - - 0,0
21.01.2020 14:00:00 10,3 8,0 - - 0,0
21.01.2020 13:00:00 10,5 8,0 - - 0,0
21.01.2020 12:00:00 10,1 8,3 - - 0,0
21.01.2020 11:00:00 9,7 7,8 - - 0,0
21.01.2020 10:00:00 9,2 7,5 - - 0,0
21.01.2020 09:00:00 8,5 6,8 3,7 5,7 0,0
21.01.2020 08:00:00 8,8 6,9 - - 0,0
21.01.2020 07:00:00 8,6 6,6 - - 0,0
21.01.2020 06:00:00 8,4 6,6 - - 0,0
21.01.2020 05:00:00 8,2 6,5 - - 0,0
21.01.2020 04:00:00 8,1 6,1 - - 0,0
21.01.2020 03:00:00 8,1 5,8 - - 0,0
21.01.2020 02:00:00 8,1 5,5 - - 0,0
21.01.2020 01:00:00 8,0 5,0 - - 0,0
21.01.2020 00:00:00 8,3 4,8 - - 0,0
20.01.2020 23:00:00 8,3 4,7 - - 0,0
20.01.2020 22:00:00 8,2 4,6 - - 0,0
20.01.2020 21:00:00 7,9 4,5 - - 0,0
20.01.2020 20:00:00 8,2 4,3 - - 0,0
20.01.2020 19:00:00 7,9 4,2 - - 0,0
20.01.2020 18:00:00 7,7 4,0 - - 0,0
20.01.2020 17:00:00 7,6 3,8 - - 0,0
20.01.2020 16:00:00 7,7 3,7 - - 0,0
20.01.2020 15:00:00 7,8 3,6 - - 0,0
20.01.2020 14:00:00 8,0 3,7 - - 0,0
20.01.2020 13:00:00 8,3 4,1 - - 0,0
20.01.2020 12:00:00 7,9 4,0 - - 0,0
20.01.2020 11:00:00 7,5 3,9 - - 0,0
20.01.2020 10:00:00 7,3 3,8 - - 0,0
20.01.2020 09:00:00 6,9 3,6 3,0 5,9 0,0
20.01.2020 08:00:00 7,0 3,6 - - 0,0
20.01.2020 07:00:00 6,9 3,5 - - 0,0
20.01.2020 06:00:00 6,9 3,4 - - 0,0
20.01.2020 05:00:00 6,7 3,4 - - 0,0
20.01.2020 04:00:00 6,3 3,2 - - 0,0
20.01.2020 03:00:00 5,8 2,7 - - 0,0
20.01.2020 02:00:00 5,7 2,5 - - 0,0
20.01.2020 01:00:00 5,6 1,8 - - 0,0
20.01.2020 00:00:00 5,3 1,0 - - 0,0
19.01.2020 23:00:00 5,6 1,0 - - 0,0
19.01.2020 22:00:00 4,8 -0,4 - - 0,0
19.01.2020 21:00:00 5,4 -1,6 - - 0,0
19.01.2020 20:00:00 4,8 -1,6 - - 0,0
19.01.2020 19:00:00 5,6 -1,6 - - 0,0
19.01.2020 18:00:00 5,2 -0,8 - - 0,0
19.01.2020 17:00:00 5,0 0,3 - - 0,0
19.01.2020 16:00:00 6,0 0,7 - - 0,0
19.01.2020 15:00:00 6,2 0,4 - - 0,0
19.01.2020 14:00:00 6,5 1,2 - - 0,0
19.01.2020 13:00:00 6,2 2,8 - - 0,0
19.01.2020 12:00:00 5,7 3,3 - - 0,0
19.01.2020 11:00:00 4,7 3,8 - - 0,2
19.01.2020 10:00:00 2,5 2,3 - - 0,0
19.01.2020 09:00:00 2,0 1,9 3,2 6,0 0,0
19.01.2020 08:00:00 -0,2 -0,4 - - 0,0
19.01.2020 07:00:00 -0,5 -0,7 - - 0,0
19.01.2020 06:00:00 -1,5 -2,0 - - 0,0
19.01.2020 05:00:00 -1,0 -1,5 - - 0,0
19.01.2020 04:00:00 -0,7 -1,3 - - 0,0
19.01.2020 03:00:00 -0,1 -1,1 - - 0,0
19.01.2020 02:00:00 0,9 -0,8 - - 0,0
19.01.2020 01:00:00 2,0 -0,1 - - 0,0
19.01.2020 00:00:00 1,2 -0,4 - - 0,0
18.01.2020 23:00:00 1,2 -0,4 - - 0,0
18.01.2020 22:00:00 2,5 0,1 - - 0,0
18.01.2020 21:00:00 1,7 -0,2 - - 0,0
18.01.2020 20:00:00 2,5 0,0 - - 0,0
18.01.2020 19:00:00 3,2 0,4 - - 0,0
18.01.2020 18:00:00 4,1 0,7 - - 0,0
18.01.2020 17:00:00 4,4 0,5 - - 0,0
18.01.2020 16:00:00 4,6 0,5 - - 0,0
18.01.2020 15:00:00 5,1 0,7 - - 0,0
18.01.2020 14:00:00 6,3 0,8 - - 0,0
18.01.2020 13:00:00 5,5 0,9 - - 0,0
18.01.2020 12:00:00 4,8 0,9 - - 0,0
18.01.2020 11:00:00 3,8 0,8 - - 0,0
18.01.2020 10:00:00 3,1 0,3 - - 0,0
18.01.2020 09:00:00 2,8 0,6 3,7 6,0 0,0
18.01.2020 08:00:00 2,6 0,3 - - 0,0
18.01.2020 07:00:00 2,1 -0,4 - - 0,0
18.01.2020 06:00:00 2,3 -0,2 - - 0,0
18.01.2020 05:00:00 2,6 -0,5 - - 0,0
18.01.2020 04:00:00 2,8 -0,6 - - 0,0
18.01.2020 03:00:00 2,4 -0,3 - - 0,0
18.01.2020 02:00:00 3,4 -0,2 - - 0,0
18.01.2020 01:00:00 3,0 -0,3 - - 0,0
18.01.2020 00:00:00 3,0 0,1 - - 0,0
17.01.2020 23:00:00 3,1 0,3 - - 0,0
17.01.2020 22:00:00 3,4 0,8 - - 0,0
17.01.2020 21:00:00 3,9 0,9 - - 0,0
17.01.2020 20:00:00 4,3 1,6 - - 0,0
17.01.2020 19:00:00 4,7 1,8 - - 0,0
17.01.2020 18:00:00 4,4 2,1 - - 0,0
17.01.2020 17:00:00 4,4 1,7 - - 0,0
17.01.2020 16:00:00 5,5 2,5 - - 0,0
17.01.2020 15:00:00 6,1 2,3 - - 0,0
17.01.2020 14:00:00 6,6 1,9 - - 0,0
17.01.2020 13:00:00 5,7 1,7 - - 0,0
17.01.2020 12:00:00 5,0 1,4 - - 0,0
17.01.2020 11:00:00 4,1 1,1 - - 0,0
17.01.2020 10:00:00 4,0 1,1 - - 0,0
17.01.2020 09:00:00 3,6 0,9 4,2 6,2 0,0
17.01.2020 08:00:00 2,1 0,1 - - 0,0
17.01.2020 07:00:00 3,3 1,0 - - 0,0
17.01.2020 06:00:00 3,3 1,2 - - 0,0
17.01.2020 05:00:00 3,0 0,6 - - 0,0
17.01.2020 04:00:00 4,4 1,4 - - 0,0
17.01.2020 03:00:00 5,5 1,8 - - 0,0
17.01.2020 02:00:00 6,0 2,0 - - 0,0
17.01.2020 01:00:00 6,4 2,2 - - 0,0
17.01.2020 00:00:00 6,4 2,2 - - 0,0
16.01.2020 23:00:00 6,8 2,7 - - 0,0
16.01.2020 22:00:00 7,1 3,3 - - 0,0
16.01.2020 21:00:00 7,8 4,6 - - 0,0
16.01.2020 20:00:00 9,8 7,1 - - 0,2
16.01.2020 19:00:00 10,3 8,2 - - 0,0
16.01.2020 18:00:00 9,4 7,5 - - 1,6
16.01.2020 17:00:00 8,6 7,3 - - 3,0
16.01.2020 16:00:00 7,9 5,6 - - 0,4
16.01.2020 15:00:00 8,2 4,5 - - 0,0
16.01.2020 14:00:00 8,6 3,5 - - 0,0
16.01.2020 13:00:00 9,2 3,6 - - 0,0
16.01.2020 12:00:00 8,6 4,3 - - 0,0
16.01.2020 11:00:00 9,0 3,9 - - 0,0
16.01.2020 10:00:00 8,8 4,4 - - 0,0
16.01.2020 09:00:00 8,7 4,0 4,0 6,2 0,0
16.01.2020 08:00:00 8,5 4,2 - - 0,0
16.01.2020 07:00:00 5,8 3,9 - - 0,0
16.01.2020 06:00:00 5,1 2,2 - - 0,0
16.01.2020 05:00:00 6,4 2,5 - - 0,0
16.01.2020 04:00:00 6,3 2,5 - - 0,0
16.01.2020 03:00:00 5,8 1,8 - - 0,0
16.01.2020 02:00:00 5,0 1,4 - - 0,0
16.01.2020 01:00:00 4,9 1,3 - - 0,0
16.01.2020 00:00:00 5,3 1,7 - - 0,0

tt = temperature
td = dewpoint
tt -20cm = temperature -20cm
tt -100cm = temperature -100cm
rr = precipitation

Next stations